Regional Weather Roundup
Issued by NWS Newport/Morehead, NC

Current Version | Previous Version | Graphics & Text | Print | Product List | Glossary Off
Versions: 1 2 3 4 5 6 7 8 9 10 11 12 13 14 15 16 17 18 19 20 21 22 23 24 25 26 27 28 29 30 31 32 33 34 35 36 37 38 39 40 41 42 43 44 45 46 47 48 49 50

000
ASUS42 KMHX 281713
RWRMHX
WEATHER ROUNDUP FOR EASTERN NORTH CAROLINA
NATIONAL WEATHER SERVICE NEWPORT/MOREHEAD CITY NC
100 PM EDT FRI AUG 28 2015

NOTE: "FAIR" INDICATES FEW OR NO CLOUDS BELOW 12,000 FEET
WITH NO SIGNIFICANT WEATHER AND/OR OBSTRUCTIONS TO VISIBILITY

NCZ015>017-031-032-045>047-102-103-281800-
NORTH COAST

CITY           SKY/WX    TMP DP  RH WIND       PRES   REMARKS
EDENTON        MOSUNNY   81  62  53 NE7       30.18F
ELIZABETH CITY MOSUNNY   82  61  48 NE13G23   30.18F
KITTY HAWK     PTSUNNY   82  64  53 NE6G16    30.17S
MANTEO         MOSUNNY   79  64  59 NE12G17   30.18S

$$

NCZ045>047-081-094-103-104-281800-
CENTRAL COAST

CITY           SKY/WX    TMP DP  RH WIND       PRES   REMARKS
FRISCO         MOSUNNY   81  66  60 NE10G23   30.15S
SWANQUARTER    NOT AVBL

$$

NCZ095-097-098-100-101-281800-
SOUTHERN COAST

CITY           SKY/WX    TMP DP  RH WIND       PRES   REMARKS
BEAUFORT       MOSUNNY   81  66  60 NE15G23   30.15S
CEDAR ISLAND   NOT AVBL
JACKSONVILLE   MOSUNNY   83  64  52 N14       30.15F
PINEY ISLAND   CLOUDY   N/A N/A N/A NE17G23   30.15F
WILMINGTON     PTSUNNY   85  67  54 NE10      30.14F


$$

NCZ011>013-027>030-043-044-078>080-089-090>093-098-281800-
COASTAL PLAIN

CITY           SKY/WX    TMP DP  RH WIND       PRES   REMARKS
AHOSKIE        SUNNY     80  57  46 N8        30.19F
CLINTON        MOSUNNY   82  64  53 NE8       30.19S
ELIZABETHTOWN  PTSUNNY   81  63  53 E6        30.17F
GOLDSBORO      MOSUNNY   83  60  44 NE14      30.17F
GREENVILLE     MOSUNNY   82  61  47 E8        30.19F
HAVELOCK       MOSUNNY   84  65  52 NE10      30.16F
KENANSVILLE    PTSUNNY   79  62  56 NE5       30.19F
KINSTON        MOSUNNY   82  59  44 NE12      30.19F
NEW BERN       PTSUNNY   82  66  58 N12       30.17F
RICHLANDS      PTSUNNY   81  64  57 N10       30.17S
ROCKY MOUNT    SUNNY     85  58  39 NE10      30.19F
WASHINGTON     MOSUNNY   81  64  54 NE8G16    30.18F
WHITEVILLE     PTSUNNY   80  64  58 NE5       30.16S

$$

AMZ130-135-150-152-154-156-158-170-250-252-270-ANZ085-086-088-633-658-670-281800-
MARINE OBSERVATIONS

STATION/POSITION TIME  TEMP    WIND        PRES    WAVE   SWELL
                       AIR SEA DIR/SP/G            HT/PER HT/PER
                 (UTC) (F)     (DEG/KT/KT) (MB)    (FT/S) (FT/S)
CHESAPEAKE LIGHT 1700   75      20/ 13/ 14 1023.0
64 E VA BEACH    1650   77 79   30/ 12/ 16 1021.3    4/10   3/10
DUCK             1600   76 78   20/ 15/ 17 1021.5
2 E DUCK         1611      78                N/A     4/12   2/12
OREGON INLET     1600   79 75   20/ 13/ 18 1021.6
13E OREGON INLT  1700      78                N/A     5/ 8   2/12
HATTERAS CG      1600   79 79   20/ 15/ 21 1020.8
DIAMOND BUOY     1650   80 82   30/ 17/ 21 1020.3    4/ 8   2/ 8
CAPE LOOKOUT     1700   80      30/ 19/ 21 1020.4
BEAUFORT LAB     1600   80 79   30/ 10/ 16 1020.3
30 SE NEW RVR IN 1608   80 82   60/ 17/ 23 1021.1
30 SE NEW RVR IN 1625      82                N/A     5/ 5   2/11
27 SE WRIGHTSVLE 1600   76 82   60/ 17/ 19   N/A
5 SE WRIGHTSVLE  1608   79 82   60/ 16/ 21 1020.9
225 S CAPE HAT   1650   81 84  180/ 10/ 12 1019.1    3/10   3/10
41 SE CHARLESTON 1650   82 85   40/  8/ 12 1018.9    3/ 8   2/ 8

$$


USA.gov is the U.S. government's official web portal to all federal, state and local government web resources and services.